• In Belarus
  • List of Countries
  • For 7 days
  • Water Temperature
  • Satellite Maps
  • Weather Map
  • Weather Widgets
  • user-avatar
    Login

    Hourly Weather Gedzhon

    Today, 20 March, Wednesday

    Time Temperature Precipitation Wind Pressure Humidity
    00:00 +8°C° 0 mm 0 mps 748 mmHg 82%
    01:00 +8°C° 0 mm 0 mps 748 mmHg 80%
    02:00 +8°C° 0 mm 0 mps 748 mmHg 77%
    03:00 +8°C° 0 mm 1 mps 747 mmHg 76%
    04:00 +8°C° 0 mm 1 mps 747 mmHg 74%
    05:00 +8°C° 0 mm 1 mps 747 mmHg 73%
    06:00 +10°C° 0 mm 1 mps 746 mmHg 67%
    07:00 +11°C° 0 mm 1 mps 746 mmHg 61%
    08:00 +13°C° 0 mm 1 mps 746 mmHg 51%
    09:00 +15°C° 0 mm 2 mps 746 mmHg 45%
    10:00 +17°C° 0 mm 2 mps 745 mmHg 39%
    11:00 +20°C° 0 mm 2 mps 744 mmHg 33%
    12:00 +19°C° 0 mm 2 mps 744 mmHg 36%
    13:00 +18°C° 0 mm 2 mps 743 mmHg 40%
    14:00 +16°C° 0 mm 2 mps 742 mmHg 53%
    15:00 +14°C° 1 mm 3 mps 741 mmHg 60%
    16:00 +13°C° 1 mm 3 mps 741 mmHg 66%
    17:00 +11°C° 1 mm 3 mps 740 mmHg 73%
    18:00 +11°C° 1 mm 3 mps 739 mmHg 77%
    19:00 +12°C° 1 mm 2 mps 738 mmHg 80%
    20:00 +11°C° 0 mm 1 mps 737 mmHg 82%
    21:00 +11°C° 2.5 mm 1 mps 737 mmHg 85%
    22:00 +11°C° 2.5 mm 1 mps 736 mmHg 89%
    23:00 +12°C° 2.5 mm 1 mps 735 mmHg 92%

    Tomorrow, 21 March, Thursday

    Time Temperature Precipitation Wind Pressure Humidity
    00:00 +12°C° 0.3 mm 2 mps 735 mmHg 92%
    01:00 +12°C° 0.3 mm 3 mps 736 mmHg 93%
    02:00 +12°C° 0.3 mm 5 mps 736 mmHg 93%
    03:00 +12°C° 0 mm 5 mps 736 mmHg 92%
    04:00 +10°C° 0 mm 5 mps 737 mmHg 91%
    05:00 +10°C° 0 mm 4 mps 737 mmHg 90%
    06:00 +9°C° 0 mm 5 mps 738 mmHg 90%
    07:00 +9°C° 0 mm 5 mps 739 mmHg 90%
    08:00 +10°C° 0 mm 5 mps 739 mmHg 89%
    09:00 +10°C° 0 mm 5 mps 740 mmHg 85%
    10:00 +10°C° 0 mm 5 mps 740 mmHg 81%
    11:00 +10°C° 0 mm 6 mps 741 mmHg 77%
    12:00 +9°C° 0 mm 6 mps 741 mmHg 76%
    13:00 +9°C° 0 mm 6 mps 742 mmHg 75%
    14:00 +8°C° 0 mm 6 mps 742 mmHg 74%
    15:00 +8°C° 0 mm 6 mps 742 mmHg 72%
    16:00 +7°C° 0 mm 6 mps 743 mmHg 70%
    17:00 +5°C° 0 mm 6 mps 743 mmHg 68%
    18:00 +5°C° 0 mm 5 mps 744 mmHg 68%
    19:00 +5°C° 0 mm 4 mps 744 mmHg 69%
    20:00 +4°C° 0 mm 3 mps 745 mmHg 69%
    21:00 +3°C° 0 mm 3 mps 745 mmHg 69%
    22:00 +3°C° 0 mm 3 mps 746 mmHg 69%
    23:00 +3°C° 0 mm 3 mps 746 mmHg 69%

    Day after tomorrow, 22 March, Friday

    Time Temperature Precipitation Wind Pressure Humidity
    00:00 +3°C° 0 mm 2 mps 747 mmHg 70%
    01:00 +3°C° 0 mm 2 mps 747 mmHg 71%
    02:00 +2°C° 0 mm 2 mps 747 mmHg 72%
    03:00 +2°C° 0 mm 2 mps 747 mmHg 72%
    04:00 +1°C° 0 mm 2 mps 747 mmHg 72%
    05:00 +2°C° 0 mm 1 mps 748 mmHg 72%
    06:00 +2°C° 0 mm 2 mps 748 mmHg 67%
    07:00 +2°C° 0 mm 2 mps 748 mmHg 62%
    08:00 +3°C° 0 mm 2 mps 749 mmHg 56%
    09:00 +3°C° 0 mm 3 mps 749 mmHg 50%
    10:00 +5°C° 0 mm 3 mps 749 mmHg 44%
    11:00 +6°C° 0 mm 4 mps 749 mmHg 38%
    12:00 +7°C° 0 mm 4 mps 749 mmHg 35%
    13:00 +7°C° 0 mm 5 mps 748 mmHg 33%
    14:00 +8°C° 0 mm 5 mps 748 mmHg 31%
    15:00 +7°C° 0 mm 5 mps 748 mmHg 33%
    16:00 +6°C° 0 mm 5 mps 748 mmHg 36%
    17:00 +5°C° 0 mm 4 mps 748 mmHg 38%
    18:00 +4°C° 0 mm 4 mps 749 mmHg 43%
    19:00 +3°C° 0 mm 3 mps 749 mmHg 48%
    20:00 +2°C° 0 mm 3 mps 750 mmHg 53%
    21:00 +3°C° 0 mm 2 mps 750 mmHg 54%
    22:00 +2°C° 0 mm 2 mps 750 mmHg 55%
    23:00 +3°C° 0 mm 1 mps 750 mmHg 56%

    23 March, Saturday

    Time Temperature Precipitation Wind Pressure Humidity
    00:00 +3°C° 0 mm 1 mps 750 mmHg 56%
    01:00 +3°C° 0 mm 1 mps 750 mmHg 57%
    02:00 +1°C° 0 mm 0 mps 750 mmHg 57%
    03:00 +2°C° 0 mm 1 mps 750 mmHg 59%
    04:00 +1°C° 0 mm 1 mps 750 mmHg 60%
    05:00 +1°C° 0 mm 1 mps 750 mmHg 62%
    06:00 +3°C° 0 mm 1 mps 751 mmHg 57%
    07:00 +4°C° 0 mm 2 mps 751 mmHg 53%
    08:00 +5°C° 0 mm 2 mps 751 mmHg 48%
    09:00 +5°C° 0.3 mm 3 mps 751 mmHg 51%
    10:00 +5°C° 0.3 mm 5 mps 750 mmHg 53%
    11:00 +5°C° 0.3 mm 6 mps 750 mmHg 56%
    12:00 +6°C° 0.3 mm 7 mps 750 mmHg 50%
    13:00 +6°C° 0.3 mm 7 mps 749 mmHg 44%
    14:00 +8°C° 0.3 mm 7 mps 749 mmHg 38%
    15:00 +7°C° 0 mm 6 mps 749 mmHg 38%
    16:00 +6°C° 0 mm 5 mps 749 mmHg 38%
    17:00 +5°C° 0 mm 4 mps 749 mmHg 38%
    18:00 +4°C° 0 mm 4 mps 750 mmHg 43%
    19:00 +2°C° 0 mm 3 mps 751 mmHg 48%
    20:00 +1°C° 0 mm 3 mps 751 mmHg 53%
    21:00 +2°C° 0 mm 2 mps 751 mmHg 56%
    22:00 +1°C° 0 mm 2 mps 752 mmHg 58%
    23:00 +2°C° 0 mm 1 mps 752 mmHg 60%

    24 March, Sunday

    Time Temperature Precipitation Wind Pressure Humidity
    00:00 +2°C° 0 mm 1 mps 752 mmHg 61%
    01:00 +1°C° 0 mm 1 mps 752 mmHg 62%
    02:00 +1°C° 0 mm 1 mps 752 mmHg 63%
    03:00 +1°C° 0 mm 1 mps 752 mmHg 63%
    04:00 +1°C° 0 mm 1 mps 752 mmHg 62%
    05:00 0°C° 0 mm 1 mps 752 mmHg 62%
    06:00 +2°C° 0 mm 1 mps 752 mmHg 55%
    07:00 +4°C° 0 mm 1 mps 752 mmHg 48%
    08:00 +6°C° 0 mm 1 mps 752 mmHg 41%
    09:00 +7°C° 0 mm 1 mps 752 mmHg 39%
    10:00 +8°C° 0 mm 2 mps 752 mmHg 37%
    11:00 +9°C° 0 mm 2 mps 751 mmHg 35%
    12:00 +9°C° 0 mm 3 mps 751 mmHg 36%
    13:00 +10°C° 0 mm 3 mps 750 mmHg 36%
    14:00 +11°C° 0 mm 4 mps 749 mmHg 37%
    15:00 +10°C° 0 mm 4 mps 749 mmHg 42%
    16:00 +8°C° 0 mm 4 mps 749 mmHg 46%
    17:00 +7°C° 0 mm 4 mps 749 mmHg 51%
    18:00 +5°C° 0 mm 3 mps 750 mmHg 57%
    19:00 +5°C° 0 mm 2 mps 750 mmHg 62%
    20:00 +4°C° 0 mm 2 mps 750 mmHg 68%
    21:00 +5°C° 0 mm 1 mps 750 mmHg 69%
    22:00 +4°C° 0 mm 1 mps 750 mmHg 71%
    23:00 +4°C° 0 mm 1 mps 750 mmHg 72%

    25 March, Monday

    Time Temperature Precipitation Wind Pressure Humidity
    00:00 +3°C° 0 mm 2 mps 750 mmHg 73%
    01:00 +2°C° 0 mm 2 mps 750 mmHg 74%
    02:00 +2°C° 0 mm 2 mps 749 mmHg 74%
    03:00 +2°C° 0 mm 2 mps 749 mmHg 75%
    04:00 +3°C° 0 mm 1 mps 749 mmHg 75%
    05:00 +2°C° 0 mm 1 mps 749 mmHg 76%
    06:00 +4°C° 0 mm 1 mps 749 mmHg 69%
    07:00 +5°C° 0 mm 2 mps 749 mmHg 62%
    08:00 +7°C° 0 mm 2 mps 749 mmHg 56%
    09:00 +9°C° 0 mm 2 mps 749 mmHg 51%
    10:00 +12°C° 0 mm 2 mps 749 mmHg 47%
    11:00 +12°C° 0 mm 3 mps 749 mmHg 43%
    12:00 +13°C° 0 mm 3 mps 748 mmHg 42%
    13:00 +13°C° 0 mm 3 mps 748 mmHg 42%
    14:00 +14°C° 0 mm 4 mps 747 mmHg 41%
    15:00 +13°C° 0 mm 4 mps 747 mmHg 45%
    16:00 +12°C° 0 mm 3 mps 747 mmHg 49%
    17:00 +11°C° 0 mm 3 mps 747 mmHg 53%
    18:00 +10°C° 0 mm 2 mps 747 mmHg 59%
    19:00 +8°C° 0 mm 2 mps 748 mmHg 65%
    20:00 +8°C° 0 mm 1 mps 748 mmHg 72%
    21:00 +7°C° 0 mm 1 mps 748 mmHg 74%
    22:00 +7°C° 0 mm 1 mps 748 mmHg 76%
    23:00 +6°C° 0 mm 1 mps 748 mmHg 79%
    Show more